Time,TemperatureF,DewpointF,PressureIn,WindDirection,WindDirectionDegrees,WindSpeedMPH,WindSpeedGustMPH,Humidity,HourlyPrecipIn,Conditions,Clouds,dailyrainin,SoftwareType,DateUTC
2013-03-03 00:03:00,29.4,25.0,29.71,WNW,287,3.0,9.0,82,0.00,,,0.00,weatherlink.com 1.10,2013-03-03 05:03:00,
2013-03-03 00:19:00,29.0,24.0,29.71,NNW,338,3.0,9.0,82,0.00,,,0.00,weatherlink.com 1.10,2013-03-03 05:19:00,
2013-03-03 00:33:00,29.0,25.0,29.71,WNW,300,3.0,5.0,83,0.00,,,0.00,weatherlink.com 1.10,2013-03-03 05:33:00,
2013-03-03 00:48:00,28.8,24.0,29.71,WNW,287,2.0,4.0,82,0.00,,,0.00,weatherlink.com 1.10,2013-03-03 05:48:00,
2013-03-03 01:03:00,28.7,24.0,29.71,NW,307,3.0,5.0,82,0.00,,,0.00,weatherlink.com 1.10,2013-03-03 06:03:00,
2013-03-03 01:18:00,28.6,24.0,29.71,West,262,3.0,6.0,81,0.00,,,0.00,weatherlink.com 1.10,2013-03-03 06:18:00,
2013-03-03 01:33:00,28.5,23.0,29.71,NW,307,6.0,9.0,81,0.00,,,0.00,weatherlink.com 1.10,2013-03-03 06:33:00,
2013-03-03 01:48:00,28.4,23.0,29.71,WNW,283,1.0,9.0,81,0.00,,,0.00,weatherlink.com 1.10,2013-03-03 06:48:00,
2013-03-03 02:03:00,28.3,23.0,29.70,NW,321,5.0,10.0,81,0.00,,,0.00,weatherlink.com 1.10,2013-03-03 07:03:00,
2013-03-03 02:18:00,28.1,23.0,29.70,West,280,3.0,10.0,80,0.00,,,0.00,weatherlink.com 1.10,2013-03-03 07:18:00,
2013-03-03 02:33:00,28.0,23.0,29.70,WNW,293,2.0,9.0,80,0.00,,,0.00,weatherlink.com 1.10,2013-03-03 07:33:00,
2013-03-03 02:49:00,27.9,23.0,29.69,WNW,302,3.0,10.0,80,0.00,,,0.00,weatherlink.com 1.10,2013-03-03 07:49:00,
2013-03-03 03:03:00,27.9,23.0,29.69,NNW,327,4.0,6.0,80,0.00,,,0.00,weatherlink.com 1.10,2013-03-03 08:03:00,
2013-03-03 03:18:00,27.7,22.0,29.69,NW,316,4.0,9.0,80,0.00,,,0.00,weatherlink.com 1.10,2013-03-03 08:18:00,
2013-03-03 03:33:00,27.6,22.0,29.69,WNW,302,3.0,12.0,79,0.00,,,0.00,weatherlink.com 1.10,2013-03-03 08:33:00,
2013-03-03 03:49:00,27.5,22.0,29.69,West,274,1.0,7.0,80,0.00,,,0.00,weatherlink.com 1.10,2013-03-03 08:49:00,
2013-03-03 04:04:00,27.3,22.0,29.69,NW,311,2.0,5.0,80,0.00,,,0.00,weatherlink.com 1.10,2013-03-03 09:04:00,
2013-03-03 04:19:00,27.3,22.0,29.69,NW,309,6.0,9.0,80,0.00,,,0.00,weatherlink.com 1.10,2013-03-03 09:19:00,
2013-03-03 04:34:00,27.2,22.0,29.69,WNW,296,2.0,7.0,79,0.00,,,0.00,weatherlink.com 1.10,2013-03-03 09:34:00,
2013-03-03 04:49:00,27.1,22.0,29.70,NW,316,5.0,8.0,80,0.00,,,0.00,weatherlink.com 1.10,2013-03-03 09:49:00,
2013-03-03 05:04:00,26.9,22.0,29.70,WNW,290,3.0,8.0,80,0.00,,,0.00,weatherlink.com 1.10,2013-03-03 10:04:00,
2013-03-03 05:19:00,26.9,21.0,29.70,NW,307,5.0,9.0,79,0.00,,,0.00,weatherlink.com 1.10,2013-03-03 10:19:00,
2013-03-03 05:34:00,26.9,22.0,29.70,NW,311,2.0,7.0,80,0.00,,,0.00,weatherlink.com 1.10,2013-03-03 10:34:00,
2013-03-03 05:49:00,26.7,21.0,29.70,WNW,302,2.0,6.0,79,0.00,,,0.00,weatherlink.com 1.10,2013-03-03 10:49:00,
2013-03-03 06:04:00,26.7,21.0,29.70,WNW,302,3.0,5.0,80,0.00,,,0.00,weatherlink.com 1.10,2013-03-03 11:04:00,
2013-03-03 06:19:00,26.6,21.0,29.70,NW,306,4.0,5.0,78,0.00,,,0.00,weatherlink.com 1.10,2013-03-03 11:19:00,
2013-03-03 06:34:00,26.5,21.0,29.70,WNW,283,1.0,6.0,78,0.00,,,0.00,weatherlink.com 1.10,2013-03-03 11:34:00,
2013-03-03 06:49:00,26.5,21.0,29.71,West,279,1.0,10.0,78,0.00,,,0.00,weatherlink.com 1.10,2013-03-03 11:49:00,
2013-03-03 07:04:00,26.6,21.0,29.71,WNW,302,4.0,11.0,78,0.00,,,0.00,weatherlink.com 1.10,2013-03-03 12:04:00,
2013-03-03 07:19:00,26.7,21.0,29.71,West,271,6.0,7.0,78,0.00,,,0.00,weatherlink.com 1.10,2013-03-03 12:19:00,
2013-03-03 07:34:00,27.0,21.0,29.71,West,276,1.0,8.0,78,0.00,,,0.00,weatherlink.com 1.10,2013-03-03 12:34:00,
2013-03-03 07:49:00,27.2,20.0,29.71,NW,322,3.0,11.0,75,0.00,,,0.00,weatherlink.com 1.10,2013-03-03 12:49:00,
2013-03-03 08:04:00,27.4,20.0,29.71,WNW,293,3.0,11.0,73,0.00,,,0.00,weatherlink.com 1.10,2013-03-03 13:04:00,
2013-03-03 08:19:00,28.0,20.0,29.71,WNW,302,2.0,9.0,71,0.00,,,0.00,weatherlink.com 1.10,2013-03-03 13:19:00,
2013-03-03 08:34:00,28.0,19.0,29.71,NW,316,5.0,11.0,70,0.00,,,0.00,weatherlink.com 1.10,2013-03-03 13:34:00,
2013-03-03 08:49:00,28.1,19.0,29.71,WNW,299,7.0,10.0,69,0.00,,,0.00,weatherlink.com 1.10,2013-03-03 13:49:00,
2013-03-03 09:04:00,27.9,19.0,29.71,NNW,330,4.0,13.0,69,0.00,,,0.00,weatherlink.com 1.10,2013-03-03 14:04:00,
2013-03-03 09:19:00,28.2,19.0,29.70,ENE,68,2.0,11.0,68,0.00,,,0.00,weatherlink.com 1.10,2013-03-03 14:19:00,
2013-03-03 09:34:00,29.0,20.0,29.70,WNW,302,2.0,12.0,69,0.00,,,0.00,weatherlink.com 1.10,2013-03-03 14:34:00,
2013-03-03 09:49:00,29.5,19.0,29.69,NW,309,4.0,13.0,66,0.00,,,0.00,weatherlink.com 1.10,2013-03-03 14:49:00,
2013-03-03 10:04:00,29.9,19.0,29.69,West,267,4.0,10.0,65,0.00,,,0.00,weatherlink.com 1.10,2013-03-03 15:04:00,
2013-03-03 10:19:00,30.1,20.0,29.69,West,273,3.0,12.0,65,0.00,,,0.00,weatherlink.com 1.10,2013-03-03 15:19:00,
2013-03-03 10:34:00,30.5,20.0,29.69,WNW,299,4.0,11.0,65,0.00,,,0.00,weatherlink.com 1.10,2013-03-03 15:34:00,
2013-03-03 10:49:00,30.7,20.0,29.68,NW,315,4.0,13.0,64,0.00,,,0.00,weatherlink.com 1.10,2013-03-03 15:49:00,
2013-03-03 11:04:00,30.7,19.0,29.68,WNW,290,4.0,11.0,63,0.00,,,0.00,weatherlink.com 1.10,2013-03-03 16:04:00,
2013-03-03 11:19:00,30.8,20.0,29.68,WNW,300,8.0,10.0,65,0.00,,,0.00,weatherlink.com 1.10,2013-03-03 16:19:00,
2013-03-03 11:34:00,30.6,20.0,29.68,West,273,3.0,12.0,65,0.00,,,0.00,weatherlink.com 1.10,2013-03-03 16:34:00,
2013-03-03 11:49:00,31.2,21.0,29.68,WSW,256,3.0,12.0,65,0.00,,,0.00,weatherlink.com 1.10,2013-03-03 16:49:00,
2013-03-03 12:04:00,31.6,21.0,29.68,WNW,299,3.0,10.0,65,0.00,,,0.00,weatherlink.com 1.10,2013-03-03 17:04:00,
2013-03-03 12:19:00,31.8,21.0,29.67,WNW,287,4.0,6.0,65,0.00,,,0.00,weatherlink.com 1.10,2013-03-03 17:19:00,
2013-03-03 12:34:00,32.0,21.0,29.67,WNW,284,4.0,11.0,65,0.00,,,0.00,weatherlink.com 1.10,2013-03-03 17:34:00,
2013-03-03 12:49:00,32.1,21.0,29.66,NNW,331,7.0,9.0,64,0.00,,,0.00,weatherlink.com 1.10,2013-03-03 17:49:00,
2013-03-03 13:04:00,32.1,21.0,29.66,WNW,282,6.0,13.0,64,0.00,,,0.00,weatherlink.com 1.10,2013-03-03 18:04:00,
2013-03-03 13:19:00,32.2,22.0,29.65,NW,307,10.0,11.0,66,0.00,,,0.00,weatherlink.com 1.10,2013-03-03 18:19:00,
2013-03-03 13:35:00,32.0,22.0,29.65,WNW,284,4.0,13.0,67,0.00,,,0.00,weatherlink.com 1.10,2013-03-03 18:35:00,
2013-03-03 13:49:00,31.8,22.0,29.65,WNW,290,4.0,12.0,68,0.00,,,0.00,weatherlink.com 1.10,2013-03-03 18:49:00,
2013-03-03 14:04:00,31.8,24.0,29.65,WNW,297,3.0,11.0,72,0.00,,,0.00,weatherlink.com 1.10,2013-03-03 19:04:00,
2013-03-03 14:19:00,31.4,24.0,29.65,WNW,288,3.0,10.0,73,0.00,,,0.00,weatherlink.com 1.10,2013-03-03 19:19:00,
2013-03-03 14:34:00,31.2,25.0,29.65,WNW,285,3.0,12.0,77,0.00,,,0.00,weatherlink.com 1.10,2013-03-03 19:34:00,
2013-03-03 14:49:00,31.4,25.0,29.65,WNW,298,1.0,12.0,77,0.00,,,0.00,weatherlink.com 1.10,2013-03-03 19:49:00,
2013-03-03 15:04:00,31.0,25.0,29.66,NNW,340,3.0,10.0,79,0.00,,,0.00,weatherlink.com 1.10,2013-03-03 20:04:00,
2013-03-03 15:19:00,30.4,25.0,29.66,WSW,243,1.0,11.0,80,0.00,,,0.00,weatherlink.com 1.10,2013-03-03 20:19:00,
2013-03-03 15:34:00,30.8,25.0,29.66,SW,231,4.0,12.0,79,0.00,,,0.00,weatherlink.com 1.10,2013-03-03 20:34:00,
2013-03-03 15:49:00,30.9,25.0,29.66,West,276,3.0,11.0,78,0.00,,,0.00,weatherlink.com 1.10,2013-03-03 20:49:00,
2013-03-03 16:04:00,30.6,25.0,29.66,NW,312,6.0,13.0,81,0.00,,,0.00,weatherlink.com 1.10,2013-03-03 21:04:00,
2013-03-03 16:19:00,30.8,26.0,29.66,North,354,3.0,8.0,81,0.00,,,0.00,weatherlink.com 1.10,2013-03-03 21:19:00,
2013-03-03 16:34:00,31.0,26.0,29.66,NW,314,3.0,7.0,81,0.00,,,0.00,weatherlink.com 1.10,2013-03-03 21:34:00,
2013-03-03 16:50:00,31.2,25.0,29.66,WNW,302,2.0,14.0,78,0.00,,,0.00,weatherlink.com 1.10,2013-03-03 21:50:00,
2013-03-03 17:05:00,30.7,26.0,29.66,NW,304,7.0,9.0,81,0.00,,,0.00,weatherlink.com 1.10,2013-03-03 22:05:00,
2013-03-03 17:20:00,30.2,26.0,29.66,NW,307,3.0,10.0,83,0.00,,,0.00,weatherlink.com 1.10,2013-03-03 22:20:00,
2013-03-03 17:35:00,30.2,26.0,29.67,NW,304,7.0,9.0,83,0.00,,,0.00,weatherlink.com 1.10,2013-03-03 22:35:00,
2013-03-03 17:50:00,30.2,26.0,29.67,West,264,4.0,6.0,83,0.00,,,0.00,weatherlink.com 1.10,2013-03-03 22:50:00,
2013-03-03 18:05:00,30.0,25.0,29.67,WNW,299,4.0,7.0,83,0.00,,,0.00,weatherlink.com 1.10,2013-03-03 23:05:00,
2013-03-03 18:20:00,30.0,26.0,29.68,WNW,292,5.0,7.0,84,0.00,,,0.00,weatherlink.com 1.10,2013-03-03 23:20:00,
2013-03-03 18:35:00,29.8,26.0,29.68,WNW,283,2.0,5.0,84,0.00,,,0.00,weatherlink.com 1.10,2013-03-03 23:35:00,
2013-03-03 18:51:00,29.8,26.0,29.69,NNW,333,3.0,6.0,84,0.00,,,0.00,weatherlink.com 1.10,2013-03-03 23:51:00,
2013-03-03 19:05:00,29.8,26.0,29.69,West,265,1.0,5.0,84,0.00,,,0.00,weatherlink.com 1.10,2013-03-04 00:05:00,
2013-03-03 19:20:00,29.8,26.0,29.69,NNW,341,3.0,5.0,84,0.00,,,0.00,weatherlink.com 1.10,2013-03-04 00:20:00,
2013-03-03 19:35:00,30.0,25.0,29.69,NW,315,5.0,7.0,82,0.00,,,0.00,weatherlink.com 1.10,2013-03-04 00:35:00,
2013-03-03 19:50:00,30.1,24.0,29.69,NW,311,4.0,7.0,78,0.00,,,0.00,weatherlink.com 1.10,2013-03-04 00:50:00,
2013-03-03 20:05:00,30.2,24.0,29.70,WNW,300,3.0,11.0,76,0.00,,,0.00,weatherlink.com 1.10,2013-03-04 01:05:00,
2013-03-03 20:20:00,30.2,23.0,29.70,WNW,301,6.0,8.0,75,0.00,,,0.00,weatherlink.com 1.10,2013-03-04 01:20:00,
2013-03-03 20:35:00,30.2,23.0,29.70,WNW,284,3.0,12.0,73,0.00,,,0.00,weatherlink.com 1.10,2013-03-04 01:35:00,
2013-03-03 20:50:00,30.2,22.0,29.70,NW,312,4.0,13.0,72,0.00,,,0.00,weatherlink.com 1.10,2013-03-04 01:50:00,
2013-03-03 21:05:00,30.0,22.0,29.71,West,278,4.0,11.0,71,0.00,,,0.00,weatherlink.com 1.10,2013-03-04 02:05:00,
2013-03-03 21:20:00,29.8,21.0,29.71,NW,323,6.0,15.0,71,0.00,,,0.00,weatherlink.com 1.10,2013-03-04 02:20:00,
2013-03-03 21:35:00,29.6,22.0,29.71,NW,318,3.0,10.0,72,0.00,,,0.00,weatherlink.com 1.10,2013-03-04 02:35:00,
2013-03-03 21:50:00,29.4,21.0,29.71,NW,325,7.0,10.0,71,0.00,,,0.00,weatherlink.com 1.10,2013-03-04 02:50:00,
2013-03-03 22:05:00,29.3,21.0,29.71,WNW,285,3.0,8.0,72,0.00,,,0.00,weatherlink.com 1.10,2013-03-04 03:05:00,
2013-03-03 22:20:00,29.2,21.0,29.71,NNW,330,6.0,12.0,71,0.00,,,0.00,weatherlink.com 1.10,2013-03-04 03:20:00,
2013-03-03 22:35:00,29.0,21.0,29.71,NW,310,5.0,9.0,72,0.00,,,0.00,weatherlink.com 1.10,2013-03-04 03:35:00,
2013-03-03 22:50:00,28.7,21.0,29.71,NW,313,3.0,11.0,72,0.00,,,0.00,weatherlink.com 1.10,2013-03-04 03:50:00,
2013-03-03 23:05:00,28.6,21.0,29.71,West,281,3.0,8.0,72,0.00,,,0.00,weatherlink.com 1.10,2013-03-04 04:05:00,
2013-03-03 23:20:00,28.5,20.0,29.71,NW,309,3.0,9.0,70,0.00,,,0.00,weatherlink.com 1.10,2013-03-04 04:20:00,
2013-03-03 23:35:00,28.3,20.0,29.71,WNW,294,2.0,9.0,72,0.00,,,0.00,weatherlink.com 1.10,2013-03-04 04:35:00,
2013-03-03 23:50:00,28.2,20.0,29.72,NW,304,4.0,9.0,71,0.00,,,0.00,weatherlink.com 1.10,2013-03-04 04:50:00,